Location: Aldenham
(51.6667°N, 0.3500°W)
Time: 06:06:03
(UTC+00:00)

Altair - Pass Details

Date: 22 February 2026
Orbit: 1502 x 1682 km, 47.2° (Epoch: 5 March)

Event Time Altitude Azimuth Distance (km) Brightness Sun altitude
Rises 03:19:39 0° 218° (SW) 4,625 - -34.2°
Reaches altitude 10° 03:22:52 10° 211° (SSW) 3,647 - -33.7°
Exits shadow 03:29:26 37° 170° (S) 2,191 8.1 -32.9°
Maximum altitude 03:31:08 40° 146° (SSE) 2,107 8.1 -32.6°
Drops below altitude 10° 03:39:34 10° 82° (E) 3,725 10.3 -31.5°
Sets 03:42:53 0° 75° (ENE) 4,734 11.2 -31.0°
